| time (UTC) | temp C | wind direction | speed KPH | gust KPH | rain 1hr cm | rain 24hr cm | rain mn cm | humidity % | barometer mb |
| 20260505035534 | 14 | 0 | 0.0 | 0.0 | 0.00 | 0.00 | 0.00 | 73 | 1013.4 |
| 20260505035032 | 14 | 0 | 0.0 | 0.0 | 0.00 | 0.00 | 0.00 | 72 | 1013.5 |
| 20260505034542 | 14 | 0 | 0.0 | 0.0 | 0.00 | 0.00 | 0.00 | 72 | 1013.4 |
| 20260505034033 | 15 | 0 | 0.0 | 0.0 | 0.00 | 0.00 | 0.00 | 71 | 1013.4 |
| 20260505033533 | 15 | 0 | 0.0 | 0.0 | 0.00 | 0.00 | 0.00 | 72 | 1013.4 |
| 20260505033042 | 15 | 0 | 0.0 | 0.0 | 0.00 | 0.00 | 0.00 | 71 | 1013.3 |
| 20260505032533 | 15 | 0 | 0.0 | 0.0 | 0.00 | 0.00 | 0.00 | 70 | 1013.3 |
| 20260505032036 | 15 | 0 | 0.0 | 0.0 | 0.00 | 0.00 | 0.00 | 71 | 1013.2 |
| 20260505031549 | 15 | 0 | 0.0 | 0.0 | 0.00 | 0.00 | 0.00 | 71 | 1013.3 |
| 20260505031033 | 15 | 0 | 0.0 | 0.0 | 0.00 | 0.00 | 0.00 | 69 | 1013.4 |
| 20260505030533 | 15 | 0 | 0.0 | 0.0 | 0.00 | 0.00 | 0.00 | 68 | 1013.3 |
| 20260505030040 | 15 | 0 | 0.0 | 0.0 | 0.00 | 0.00 | 0.00 | 69 | 1013.4 |
| 20260505025532 | 15 | 0 | 0.0 | 0.0 | 0.00 | 0.00 | 0.00 | 68 | 1013.3 |
| 20260505025033 | 15 | 0 | 0.0 | 0.0 | 0.00 | 0.00 | 0.00 | 66 | 1013.3 |
| 20260505024544 | 16 | 0 | 0.0 | 0.0 | 0.00 | 0.00 | 0.00 | 66 | 1013.4 |
| 20260505024035 | 16 | 0 | 0.0 | 0.0 | 0.00 | 0.00 | 0.00 | 67 | 1013.5 |
| 20260505023536 | 16 | 0 | 0.0 | 0.0 | 0.00 | 0.00 | 0.00 | 66 | 1013.4 |
| 20260505023045 | 16 | 0 | 0.0 | 0.0 | 0.00 | 0.00 | 0.00 | 67 | 1013.4 |
| 20260505022533 | 16 | 0 | 0.0 | 0.0 | 0.00 | 0.00 | 0.00 | 66 | 1013.4 |
| 20260505022032 | 16 | 0 | 0.0 | 0.0 | 0.00 | 0.00 | 0.00 | 66 | 1013.3 |
| 20260505021542 | 16 | 0 | 0.0 | 1.6 | 0.00 | 0.00 | 0.00 | 66 | 1013.3 |
| 20260505021032 | 16 | 0 | 0.0 | 1.6 | 0.00 | 0.00 | 0.00 | 64 | 1013.3 |
| 20260505020532 | 16 | 95 | 0.0 | 1.6 | 0.00 | 0.00 | 0.00 | 65 | 1013.3 |
| 20260505020040 | 16 | 0 | 0.0 | 1.6 | 0.00 | 0.00 | 0.00 | 64 | 1013.3 |
| 20260505015537 | 17 | 0 | 0.0 | 3.2 | 0.00 | 0.00 | 0.00 | 65 | 1013.4 |
| 20260505015035 | 17 | 0 | 0.0 | 3.2 | 0.00 | 0.00 | 0.00 | 64 | 1013.3 |
| 20260505014549 | 17 | 0 | 0.0 | 0.0 | 0.00 | 0.00 | 0.00 | 64 | 1013.3 |
| 20260505014038 | 17 | 0 | 0.0 | 3.2 | 0.00 | 0.00 | 0.00 | 65 | 1013.3 |
| 20260505013532 | 17 | 0 | 0.0 | 3.2 | 0.00 | 0.00 | 0.00 | 66 | 1013.2 |
| 20260505013056 | 17 | 0 | 0.0 | 1.6 | 0.00 | 0.00 | 0.00 | 68 | 1013.2 |
| 20260505012535 | 17 | 0 | 0.0 | 1.6 | 0.00 | 0.00 | 0.00 | 64 | 1013.0 |
| 20260505012033 | 17 | 0 | 0.0 | 0.0 | 0.00 | 0.00 | 0.00 | 67 | 1013.0 |
| 20260505011543 | 17 | 0 | 0.0 | 0.0 | 0.00 | 0.00 | 0.00 | 65 | 1012.9 |
| 20260505011032 | 17 | 0 | 0.0 | 0.0 | 0.00 | 0.00 | 0.00 | 67 | 1012.9 |
| 20260505010533 | 17 | 0 | 0.0 | 1.6 | 0.00 | 0.00 | 0.00 | 67 | 1012.9 |
| 20260505010043 | 17 | 0 | 0.0 | 4.8 | 0.00 | 0.00 | 0.00 | 67 | 1012.8 |
| 20260505005534 | 17 | 0 | 0.0 | 4.8 | 0.00 | 0.00 | 0.00 | 66 | 1012.8 |
| 20260505005033 | 17 | 0 | 0.0 | 0.0 | 0.00 | 0.00 | 0.00 | 67 | 1012.7 |
| 20260505004541 | 18 | 0 | 0.0 | 0.0 | 0.00 | 0.00 | 0.00 | 67 | 1012.7 |
| 20260505004032 | 18 | 0 | 0.0 | 0.0 | 0.00 | 0.00 | 0.00 | 66 | 1012.5 |
| 20260505003533 | 18 | 0 | 0.0 | 0.0 | 0.00 | 0.00 | 0.00 | 66 | 1012.5 |
| 20260505003039 | 18 | 0 | 0.0 | 0.0 | 0.00 | 0.00 | 0.00 | 64 | 1012.4 |
| 20260505002533 | 19 | 0 | 0.0 | 3.2 | 0.00 | 0.00 | 0.00 | 64 | 1012.4 |
| 20260505002034 | 19 | 0 | 0.0 | 3.2 | 0.00 | 0.00 | 0.00 | 63 | 1012.4 |
| 20260505001544 | 20 | 0 | 0.0 | 3.2 | 0.00 | 0.00 | 0.00 | 62 | 1012.3 |
| 20260505001034 | 20 | 0 | 0.0 | 0.0 | 0.00 | 0.00 | 0.00 | 61 | 1012.3 |
| 20260505000535 | 20 | 0 | 0.0 | 0.0 | 0.00 | 0.00 | 0.00 | 59 | 1012.4 |
| 20260505000053 | 20 | 0 | 0.0 | 0.0 | 0.00 | 0.00 | 0.00 | 60 | 1012.4 |
| 20260504235533 | 21 | 0 | 0.0 | 0.0 | 0.00 | 0.00 | 0.00 | 58 | 1012.4 |
| 20260504235035 | 21 | 0 | 0.0 | 0.0 | 0.00 | 0.00 | 0.00 | 57 | 1012.4 |
| 20260504234541 | 21 | 0 | 0.0 | 0.0 | 0.00 | 0.00 | 0.00 | 56 | 1012.3 |
| 20260504234033 | 21 | 0 | 0.0 | 1.6 | 0.00 | 0.00 | 0.00 | 56 | 1012.2 |
| 20260504233533 | 21 | 0 | 0.0 | 1.6 | 0.00 | 0.00 | 0.00 | 55 | 1012.2 |
| 20260504233055 | 21 | 0 | 0.0 | 4.8 | 0.00 | 0.00 | 0.00 | 54 | 1012.2 |
| 20260504232534 | 22 | 0 | 0.0 | 4.8 | 0.00 | 0.00 | 0.00 | 53 | 1012.1 |
| 20260504232035 | 22 | 0 | 0.0 | 4.8 | 0.00 | 0.00 | 0.00 | 52 | 1012.2 |
| 20260504231546 | 22 | 0 | 0.0 | 3.2 | 0.00 | 0.00 | 0.00 | 52 | 1012.2 |
| 20260504231032 | 22 | 0 | 0.0 | 8.0 | 0.00 | 0.00 | 0.00 | 51 | 1012.2 |
| 20260504230534 | 22 | 0 | 0.0 | 8.0 | 0.00 | 0.00 | 0.00 | 51 | 1012.1 |
| 20260504230037 | 22 | 360 | 1.6 | 8.0 | 0.00 | 0.00 | 0.00 | 50 | 1012.3 |
| 20260504225532 | 22 | 0 | 3.2 | 9.7 | 0.00 | 0.00 | 0.00 | 49 | 1012.3 |
| 20260504225036 | 22 | 5 | 3.2 | 9.7 | 0.00 | 0.00 | 0.00 | 49 | 1012.3 |
| 20260504224543 | 22 | 27 | 1.6 | 9.7 | 0.00 | 0.00 | 0.00 | 49 | 1012.4 |
| 20260504224031 | 22 | 355 | 3.2 | 9.7 | 0.00 | 0.00 | 0.00 | 49 | 1012.3 |
| 20260504223533 | 22 | 336 | 1.6 | 9.7 | 0.00 | 0.00 | 0.00 | 48 | 1012.4 |
| 20260504223050 | 22 | 55 | 1.6 | 8.0 | 0.00 | 0.00 | 0.00 | 48 | 1012.4 |
| 20260504222534 | 22 | 260 | 1.6 | 8.0 | 0.00 | 0.00 | 0.00 | 48 | 1012.4 |
| 20260504222033 | 22 | 24 | 3.2 | 8.0 | 0.00 | 0.00 | 0.00 | 48 | 1012.4 |
| 20260504221541 | 22 | 64 | 3.2 | 8.0 | 0.00 | 0.00 | 0.00 | 47 | 1012.4 |
| 20260504221036 | 22 | 319 | 1.6 | 8.0 | 0.00 | 0.00 | 0.00 | 47 | 1012.4 |
| 20260504220533 | 22 | 339 | 3.2 | 8.0 | 0.00 | 0.00 | 0.00 | 48 | 1012.4 |
| 20260504220056 | 22 | 0 | 3.2 | 8.0 | 0.00 | 0.00 | 0.00 | 49 | 1012.5 |
| 20260504215532 | 22 | 321 | 3.2 | 8.0 | 0.00 | 0.00 | 0.00 | 51 | 1012.6 |
| 20260504215034 | 22 | 329 | 3.2 | 8.0 | 0.00 | 0.00 | 0.00 | 48 | 1012.6 |
| 20260504214548 | 22 | 0 | 0.0 | 8.0 | 0.00 | 0.00 | 0.00 | 48 | 1012.7 |
| 20260504214034 | 22 | 345 | 0.0 | 8.0 | 0.00 | 0.00 | 0.00 | 50 | 1012.7 |
| 20260504213534 | 22 | 0 | 1.6 | 8.0 | 0.00 | 0.00 | 0.00 | 50 | 1012.8 |
| 20260504213044 | 22 | 0 | 1.6 | 12.9 | 0.00 | 0.00 | 0.00 | 51 | 1012.7 |
| 20260504212532 | 22 | 326 | 3.2 | 12.9 | 0.00 | 0.00 | 0.00 | 48 | 1012.7 |
| 20260504212034 | 22 | 296 | 1.6 | 8.0 | 0.00 | 0.00 | 0.00 | 50 | 1012.6 |
| 20260504211542 | 22 | 153 | 0.0 | 8.0 | 0.00 | 0.00 | 0.00 | 48 | 1012.5 |
| 20260504211034 | 23 | 272 | 0.0 | 8.0 | 0.00 | 0.00 | 0.00 | 47 | 1012.5 |
| 20260504210537 | 23 | 0 | 1.6 | 8.0 | 0.00 | 0.00 | 0.00 | 49 | 1012.4 |
| 20260504210044 | 23 | 304 | 1.6 | 9.7 | 0.00 | 0.00 | 0.00 | 49 | 1012.3 |
| 20260504205531 | 22 | 5 | 1.6 | 14.5 | 0.00 | 0.00 | 0.00 | 48 | 1012.4 |
| 20260504205034 | 22 | 338 | 4.8 | 14.5 | 0.00 | 0.00 | 0.00 | 47 | 1012.3 |
| 20260504204550 | 22 | 0 | 1.6 | 6.4 | 0.00 | 0.00 | 0.00 | 48 | 1012.5 |
| 20260504204032 | 22 | 0 | 0.0 | 9.7 | 0.00 | 0.00 | 0.00 | 48 | 1012.6 |
| 20260504203533 | 22 | 0 | 0.0 | 9.7 | 0.00 | 0.00 | 0.00 | 48 | 1012.7 |
| 20260504203040 | 22 | 156 | 1.6 | 12.9 | 0.00 | 0.00 | 0.00 | 47 | 1012.7 |
| 20260504202532 | 23 | 5 | 1.6 | 12.9 | 0.00 | 0.00 | 0.00 | 46 | 1012.7 |
| 20260504202033 | 23 | 321 | 1.6 | 12.9 | 0.00 | 0.00 | 0.00 | 49 | 1012.7 |
| 20260504201603 | 23 | 284 | 1.6 | 12.9 | 0.00 | 0.00 | 0.00 | 45 | 1012.7 |
| 20260504201037 | 23 | 336 | 1.6 | 16.1 | 0.00 | 0.00 | 0.00 | 45 | 1012.8 |
| 20260504200533 | 23 | 63 | 0.0 | 16.1 | 0.00 | 0.00 | 0.00 | 46 | 1012.7 |
| 20260504200045 | 23 | 94 | 4.8 | 16.1 | 0.00 | 0.00 | 0.00 | 46 | 1012.7 |
| 20260504195533 | 23 | 30 | 1.6 | 14.5 | 0.00 | 0.00 | 0.00 | 46 | 1012.8 |
| 20260504195033 | 23 | 0 | 0.0 | 8.0 | 0.00 | 0.00 | 0.00 | 45 | 1012.7 |
| 20260504194553 | 23 | 93 | 1.6 | 8.0 | 0.00 | 0.00 | 0.00 | 48 | 1012.9 |
| 20260504194033 | 23 | 67 | 0.0 | 9.7 | 0.00 | 0.00 | 0.00 | 45 | 1012.8 |
| 20260504193534 | 23 | 79 | 0.0 | 9.7 | 0.00 | 0.00 | 0.00 | 47 | 1013.0 |
| 20260504193050 | 23 | 331 | 3.2 | 9.7 | 0.00 | 0.00 | 0.00 | 46 | 1013.0 |
| 20260504192533 | 23 | 34 | 1.6 | 11.3 | 0.00 | 0.00 | 0.00 | 50 | 1013.1 |
| 20260504192033 | 23 | 20 | 1.6 | 11.3 | 0.00 | 0.00 | 0.00 | 47 | 1012.9 |
| 20260504191543 | 23 | 127 | 1.6 | 8.0 | 0.00 | 0.00 | 0.00 | 45 | 1013.0 |
| 20260504191035 | 23 | 30 | 0.0 | 6.4 | 0.00 | 0.00 | 0.00 | 47 | 1013.2 |
| 20260504190536 | 22 | 0 | 1.6 | 6.4 | 0.00 | 0.00 | 0.00 | 46 | 1013.1 |
| 20260504190058 | 22 | 0 | 0.0 | 8.0 | 0.00 | 0.00 | 0.00 | 46 | 1013.2 |
| 20260504185536 | 22 | 277 | 0.0 | 8.0 | 0.00 | 0.00 | 0.00 | 46 | 1013.4 |
| 20260504185029 | 22 | 307 | 1.6 | 4.8 | 0.00 | 0.00 | 0.00 | 48 | 1013.5 |
| 20260504184557 | 22 | 0 | 0.0 | 3.2 | 0.00 | 0.00 | 0.00 | 47 | 1013.5 |
| 20260504184037 | 23 | 0 | 0.0 | 8.0 | 0.00 | 0.00 | 0.00 | 48 | 1013.7 |
| 20260504183534 | 23 | 59 | 0.0 | 8.0 | 0.00 | 0.00 | 0.00 | 47 | 1013.6 |
| 20260504183050 | 23 | 339 | 3.2 | 8.0 | 0.00 | 0.00 | 0.00 | 45 | 1013.7 |
| 20260504182533 | 23 | 141 | 1.6 | 6.4 | 0.00 | 0.00 | 0.00 | 46 | 1013.8 |
| 20260504182033 | 23 | 163 | 1.6 | 6.4 | 0.00 | 0.00 | 0.00 | 43 | 1013.8 |
| 20260504181551 | 23 | 129 | 1.6 | 9.7 | 0.00 | 0.00 | 0.00 | 46 | 1013.8 |
| 20260504181036 | 23 | 215 | 3.2 | 9.7 | 0.00 | 0.00 | 0.00 | 42 | 1013.8 |
| 20260504180534 | 23 | 124 | 1.6 | 8.0 | 0.00 | 0.00 | 0.00 | 46 | 1014.1 |
| 20260504180053 | 23 | 360 | 1.6 | 11.3 | 0.00 | 0.00 | 0.00 | 45 | 1014.0 |
| 20260504175534 | 23 | 23 | 1.6 | 11.3 | 0.00 | 0.00 | 0.00 | 47 | 1014.1 |
| 20260504175034 | 23 | 101 | 1.6 | 8.0 | 0.00 | 0.00 | 0.00 | 47 | 1014.2 |
| 20260504174545 | 22 | 355 | 1.6 | 8.0 | 0.00 | 0.00 | 0.00 | 45 | 1014.2 |
| 20260504174034 | 22 | 326 | 1.6 | 14.5 | 0.00 | 0.00 | 0.00 | 46 | 1014.3 |
| 20260504173536 | 22 | 132 | 3.2 | 14.5 | 0.00 | 0.00 | 0.00 | 48 | 1014.4 |
| 20260504173041 | 22 | 309 | 1.6 | 9.7 | 0.00 | 0.00 | 0.00 | 46 | 1014.3 |
| 20260504172533 | 21 | 155 | 1.6 | 9.7 | 0.00 | 0.00 | 0.00 | 47 | 1014.5 |
| 20260504172034 | 21 | 327 | 1.6 | 8.0 | 0.00 | 0.00 | 0.00 | 46 | 1014.5 |
| 20260504171540 | 21 | 21 | 3.2 | 16.1 | 0.00 | 0.00 | 0.00 | 45 | 1014.5 |
| 20260504171037 | 21 | 85 | 6.4 | 16.1 | 0.00 | 0.00 | 0.00 | 46 | 1014.6 |
| 20260504170534 | 21 | 302 | 4.8 | 16.1 | 0.00 | 0.00 | 0.00 | 44 | 1014.6 |
| 20260504151035 | 18 | 290 | 3.2 | 12.9 | 0.00 | 0.00 | 0.00 | 49 | 1016.2 |
| 20260504150536 | 18 | 355 | 1.6 | 12.9 | 0.00 | 0.00 | 0.00 | 50 | 1016.3 |
| 20260504141036 | 17 | 335 | 0.0 | 6.4 | 0.00 | 0.00 | 0.00 | 52 | 1016.4 |
| 20260504140534 | 17 | 355 | 3.2 | 6.4 | 0.00 | 0.00 | 0.00 | 52 | 1016.3 |
| 20260504130533 | 15 | 0 | 0.0 | 3.2 | 0.00 | 0.00 | 0.00 | 60 | 1016.4 |
| 20260504110534 | 8 | 0 | 0.0 | 0.0 | 0.00 | 0.00 | 0.00 | 79 | 1016.7 |
| 20260504100533 | 7 | 0 | 0.0 | 0.0 | 0.00 | 0.00 | 0.00 | 75 | 1016.4 |
| 20260504081549 | 8 | 0 | 0.0 | 0.0 | 0.00 | 0.00 | 0.00 | 71 | 1016.2 |
| 20260504081033 | 8 | 0 | 0.0 | 0.0 | 0.00 | 0.00 | 0.00 | 72 | 1016.2 |
| 20260504080538 | 8 | 0 | 0.0 | 0.0 | 0.00 | 0.00 | 0.00 | 73 | 1016.2 |
| 20260504050534 | 6 | 0 | 0.0 | 0.0 | 0.00 | 0.00 | 0.00 | 79 | 1016.7 |
| 20260504045532 | 6 | 0 | 0.0 | 0.0 | 0.00 | 0.00 | 0.00 | 78 | 1016.4 |
| 20260504045032 | 6 | 0 | 0.0 | 0.0 | 0.00 | 0.00 | 0.00 | 77 | 1016.4 |
| 20260504044546 | 6 | 0 | 0.0 | 0.0 | 0.00 | 0.00 | 0.00 | 78 | 1016.4 |
| 20260504044033 | 6 | 0 | 0.0 | 0.0 | 0.00 | 0.00 | 0.00 | 78 | 1016.4 |
| 20260504043533 | 6 | 0 | 0.0 | 0.0 | 0.00 | 0.00 | 0.00 | 77 | 1016.4 |
| 20260504043043 | 6 | 0 | 0.0 | 0.0 | 0.00 | 0.00 | 0.00 | 77 | 1016.4 |
| 20260504042533 | 6 | 0 | 0.0 | 3.2 | 0.00 | 0.00 | 0.00 | 76 | 1016.4 |
| 20260504042034 | 6 | 0 | 0.0 | 3.2 | 0.00 | 0.00 | 0.00 | 75 | 1016.4 |
| 20260504041542 | 6 | 279 | 0.0 | 1.6 | 0.00 | 0.00 | 0.00 | 75 | 1016.4 |
| 20260504041033 | 6 | 0 | 0.0 | 0.0 | 0.00 | 0.00 | 0.00 | 75 | 1016.5 |
| 20260504040533 | 7 | 0 | 0.0 | 0.0 | 0.00 | 0.00 | 0.00 | 75 | 1016.4 |
| 20260504040045 | 7 | 0 | 0.0 | 0.0 | 0.00 | 0.00 | 0.00 | 70 | 1016.3 |